Location: Newport
(44.6370°N, 124.0520°W)
Time: 04:41:44
(UTC-07:00)

Tiangong 1 - Pass Details

Date: 10 October 2017
Orbit: 292 x 319 km, 42.8° (Epoch: 22 October)

Event Time Altitude Azimuth Distance (km) Brightness Sun altitude
Rises 19:20:41 0° 260° (W) 2,046 7.0 -8.1°
Reaches altitude 10° 19:22:41 10° 256° (WSW) 1,211 5.1 -8.4°
Maximum altitude 19:25:21 56° 177° (S) 376 1.0 -8.9°
Enters shadow 19:27:27 14° 100° (E) 982 2.5 -9.3°
